User: anonymous   Login
Location: Chiroubles
(46.1812°N, 4.6660°E)
Time: 12:20:55
(UTC+00:00)
Language:

Cosmos 2333 - Orbit

View from above orbital plane
View from above orbital plane
View from above satellite
View from above satellite

Ground track
Ground track

The orbit data is extracted from the following two-line orbital elements,

1 24297U 96051A   20296.48943903 +.00000093 +00000-0 +75182-4 0  9993
2 24297 070.9083 359.1554 0023199 174.6857 185.4515 14.13353016244722
Epoch (UTC): 22 October 2020 11:44:47
Eccentricity: 0.0023199
inclination: 70.9083°
perigee height: 831 km
apogee height: 864 km
right ascension of ascending node: 359.1554°
argument of perigee: 174.6857°
revolutions per day: 14.13353016
mean anomaly at epoch: 185.4515°
orbit number at epoch: 24472

The dashed part of the orbit path shows where the satellite is in the earth's shadow,  

DLR